Tracking 30995 objects as of 6-Jul-2025
HD Live streaming from Space Station
objects crossing your sky now

ONEWEB-0542

Track ONEWEB-0542 now!
10-day predictions
ONEWEB-0542 is classified as:


NORAD ID: 54646
Int'l Code: 2022-166E
Perigee: 1,183.6 km
Apogee: 1,186.2 km
Inclination: 87.9 °
Period: 108.9 minutes
Semi major axis: 7555 km
RCS: Unknown
Launch date: December 8, 2022
Source: United Kingdom (UK)
Launch site: AIR FORCE EASTERN TEST RANGE (AFETR)
Your satellite tracking list
Your tracking list is empty




NASA's NSSDC Master Catalog

Two Line Element Set (TLE):
1 54646U 22166E   25186.83667455  .00000055  00000-0  10093-3 0  9994
2 54646  87.9258 313.0604 0001674 108.2065 251.9252 13.21824110126247
Source of the keplerian elements: AFSPC